Le nostre stazioni meteo in Italia

Pubblicità
Il mio iltempo24.it
Besancon, Francia (7288): Temperatura & dewpoint: 12.01.2020 09:00:00 - 18.01.2020 09:00:00 (CET)Besancon, Francia (7288): Temperatura 5cm: 12.01.2020 09:00:00 - 18.01.2020 09:00:00 (CET)Besancon, Francia (7288): Temperatura -20cm & Temperatura -100cm: 12.01.2020 09:00:00 - 18.01.2020 09:00:00 (CET)Besancon, Francia (7288): velocità del vento & gusts: 12.01.2020 09:00:00 - 18.01.2020 09:00:00 (CET)Besancon, Francia (7288): direzione del vento: 12.01.2020 09:00:00 - 18.01.2020 09:00:00 (CET)Besancon, Francia (7288): reduced air pressure: 12.01.2020 09:00:00 - 18.01.2020 09:00:00 (CET)Besancon, Francia (7288): ore di luce: 12.01.2020 09:00:00 - 18.01.2020 09:00:00 (CET)Besancon, Francia (7288): precipitazioni: 12.01.2020 09:00:00 - 18.01.2020 09:00:00 (CET)
Data & Tempo tt [°C] td [°C] tt 5cm [°C] tt -20cm [°C] tt -100cm [°C] ff [km/h] ff [kn] fx [km/h] fx [kn] dd ppp [hPa] sd [min] rr [mm]
18.01.2020 09:00:00 2,0 1,7 -2,0 6,3 7,9 6 4 13 7 SO 1030,8 17 0,0
18.01.2020 08:00:00 2,0 1,4 -1,4 6,3 7,9 0 0 11 6 N 1030,4 0 0,0
18.01.2020 07:00:00 2,8 2,1 -0,2 6,3 7,9 5 3 11 6 SO 1030,5 0 0,0
18.01.2020 06:00:00 3,2 2,2 1,6 6,4 7,9 6 4 23 12 SSO 1030,3 0 0,0
18.01.2020 05:00:00 3,7 2,5 2,2 6,4 7,9 10 5 27 14 SSO 1029,9 0 0,0
18.01.2020 04:00:00 4,1 3,1 2,7 6,4 7,9 12 6 23 13 SO 1029,7 0 0,0
18.01.2020 03:00:00 4,6 3,9 3,6 6,4 7,9 10 5 22 12 SO 1029,4 0 0,0
18.01.2020 02:00:00 4,8 4,1 3,5 6,4 7,9 9 5 23 12 SO 1028,9 0 0,0
18.01.2020 01:00:00 5,1 4,4 3,5 6,5 7,9 10 6 20 11 SO 1028,2 0 0,0
18.01.2020 00:00:00 5,7 5,1 4,3 6,4 7,9 9 5 18 10 SO 1027,5 0 0,2
17.01.2020 23:00:00 6,3 5,6 5,0 6,4 7,9 10 6 19 10 SSO 1026,9 0 0,4
17.01.2020 22:00:00 6,7 5,5 5,6 6,4 7,9 8 4 19 10 SO 1026,2 0 0,0
17.01.2020 21:00:00 7,3 6,2 6,4 6,4 7,9 10 5 21 11 SO 1025,6 0 0,0
17.01.2020 20:00:00 7,6 6,8 6,4 6,4 7,9 8 5 18 10 SO 1024,6 0 0,0
17.01.2020 19:00:00 7,7 6,8 6,7 6,3 7,9 10 6 18 10 SO 1023,9 0 0,0
17.01.2020 18:00:00 7,9 6,8 6,9 6,3 7,9 9 5 17 9 SO 1023,1 0 0,0
17.01.2020 17:00:00 8,1 6,4 7,3 6,2 7,9 6 4 28 15 SSO 1022,3 0 0,0
17.01.2020 16:00:00 8,2 6,5 7,3 6,2 7,9 11 6 24 13 SO 1021,6 0 0,0
17.01.2020 15:00:00 8,1 7,0 7,5 6,1 7,9 13 7 31 17 SO 1021,6 0 0,4
17.01.2020 14:00:00 8,6 7,5 7,8 6,1 7,9 14 8 29 15 SO 1021,2 0 0,8
17.01.2020 13:00:00 8,4 7,6 7,3 6,1 7,9 15 8 31 17 SSO 1021,7 0 2,0
17.01.2020 12:00:00 8,9 6,9 7,7 6,1 7,9 11 6 37 20 SO 1021,9 0 0,6
17.01.2020 11:00:00 11,1 4,5 10,6 6,1 7,9 17 9 36 19 SO 1021,6 0 0,0
17.01.2020 10:00:00 11,1 3,9 9,9 6,1 7,9 15 8 42 23 SSO 1021,5 0 0,0
17.01.2020 09:00:00 10,6 3,6 9,0 6,1 7,9 11 6 29 16 SSO 1021,9 0 0,0
17.01.2020 08:00:00 10,2 3,2 7,5 6,1 7,9 13 7 28 15 SO 1021,9 0 0,0
17.01.2020 07:00:00 9,2 2,7 7,4 6,2 7,9 7 4 26 14 SSO 1021,7 0 0,0
17.01.2020 06:00:00 9,1 2,4 3,1 6,2 7,9 8 5 22 12 SSO 1021,6 0 0,0
17.01.2020 05:00:00 7,2 2,1 1,6 6,3 7,9 3 2 13 7 S 1022,1 0 0,0
17.01.2020 04:00:00 7,4 2,3 1,9 6,3 7,8 4 2 20 11 SSO 1022,6 0 0,0
17.01.2020 03:00:00 8,8 3,0 5,0 6,4 7,9 8 4 23 12 SSO 1023,1 0 0,0
17.01.2020 02:00:00 9,1 3,1 2,8 6,4 7,9 8 5 22 12 SSO 1023,1 0 0,0
17.01.2020 01:00:00 7,7 2,8 -1,1 6,5 7,9 5 3 19 11 SSO 1023,7 0 0,0
17.01.2020 00:00:00 4,9 1,9 -1,3 6,6 7,9 0 0 7 4 N 1024,5 0 0,0
16.01.2020 23:00:00 5,1 2,3 -1,2 6,6 7,9 0 0 6 4 N 1024,7 0 0,0
16.01.2020 22:00:00 4,8 2,8 -0,7 6,6 7,9 0 0 7 4 N 1025,2 0 0,0
16.01.2020 21:00:00 4,8 3,5 -1,0 6,6 7,9 4 2 6 3 NNE 1025,9 0 0,0
16.01.2020 20:00:00 5,7 3,5 -0,3 6,6 7,9 2 1 5 3 NNE 1026,2 0 0,0
16.01.2020 19:00:00 6,7 3,7 0,5 6,6 7,9 3 2 5 3 NNE 1026,2 0 0,0
16.01.2020 18:00:00 9,0 4,2 2,2 6,6 7,9 0 0 2 1 N 1026,1 0 0,0
16.01.2020 17:00:00 11,7 4,7 6,8 6,5 7,8 3 1 11 6 O 1025,7 43 0,0
16.01.2020 16:00:00 13,4 4,5 16,3 6,4 7,9 5 3 14 8 O 1025,4 60 0,0
16.01.2020 15:00:00 13,7 4,6 16,5 6,3 7,8 7 4 12 7 O 1025,5 60 0,0
16.01.2020 14:00:00 14,0 4,6 18,0 6,3 7,8 3 1 12 6 SSO 1025,7 60 0,0
16.01.2020 13:00:00 13,8 4,1 20,3 6,3 7,8 3 2 15 8 SO 1026,4 60 0,0
16.01.2020 12:00:00 13,2 4,1 15,9 6,3 7,8 2 1 8 5 E 1027,3 60 0,0
16.01.2020 11:00:00 10,8 4,3 8,2 6,3 7,8 0 0 6 3 N 1028,3 60 0,0
16.01.2020 10:00:00 9,8 4,4 5,4 6,2 7,8 0 0 4 2 N 1028,6 11 0,0
16.01.2020 09:00:00 7,7 4,3 4,3 6,2 7,8 2 1 4 2 N 1028,9 15 0,0
16.01.2020 08:00:00 7,9 4,5 5,8 6,3 7,9 0 0 4 2 N 1028,5 0 0,0
16.01.2020 07:00:00 8,1 4,3 6,2 6,2 7,8 0 0 5 3 N 1028,3 0 0,0
16.01.2020 06:00:00 8,2 4,4 6,5 6,2 7,9 3 2 5 3 NNE 1028,1 0 0,0
16.01.2020 05:00:00 9,1 3,7 7,0 6,2 7,9 0 0 5 3 N 1028,1 0 0,0
16.01.2020 04:00:00 9,1 3,7 7,1 6,2 7,8 0 0 7 4 N 1028,0 0 0,0
16.01.2020 03:00:00 9,5 3,7 6,6 6,2 7,9 3 2 7 4 SO 1027,8 0 0,0
16.01.2020 02:00:00 10,1 3,8 8,5 6,1 7,8 3 2 17 9 SSO 1027,3 0 0,0
16.01.2020 01:00:00 10,8 3,8 9,7 6,1 7,9 9 5 20 11 SO 1027,3 0 0,0
16.01.2020 00:00:00 10,9 3,9 10,0 6,1 7,9 6 3 27 15 SSO 1026,9 0 0,0
15.01.2020 23:00:00 10,9 3,9 9,2 6,0 7,9 9 5 28 15 SSO 1026,5 0 0,0
15.01.2020 22:00:00 10,5 4,0 7,4 6,0 7,8 8 4 24 13 SSO 1025,7 0 0,0
15.01.2020 21:00:00 10,2 3,9 8,3 6,0 7,9 8 4 27 15 SSO 1025,0 0 0,0
15.01.2020 20:00:00 11,2 4,2 9,9 6,0 7,9 8 4 39 21 SSO 1024,6 0 0,0
15.01.2020 19:00:00 11,5 4,0 9,9 5,9 7,9 19 11 45 24 SSO 1023,7 0 0,0
15.01.2020 18:00:00 11,7 4,2 9,7 5,9 7,9 16 8 45 24 SO 1023,0 0 0,0
15.01.2020 17:00:00 12,3 4,0 10,9 5,8 7,9 16 9 48 26 SO 1022,2 30 0,0
15.01.2020 16:00:00 12,7 4,4 12,5 5,7 7,9 21 12 66 36 SSO 1021,5 32 0,0
15.01.2020 15:00:00 13,0 3,9 13,0 5,6 7,8 24 13 59 32 SSO 1020,5 51 0,0
15.01.2020 14:00:00 13,7 3,7 14,2 5,6 7,9 29 15 60 32 SSO 1020,0 53 0,0
15.01.2020 13:00:00 13,6 3,6 14,2 5,6 7,8 25 13 54 29 SSO 1020,0 53 0,0
15.01.2020 12:00:00 13,0 3,4 13,3 5,6 7,9 25 13 61 33 SO 1019,8 60 0,0
15.01.2020 11:00:00 12,2 2,9 10,3 5,6 7,8 22 12 54 29 SO 1020,0 60 0,0
15.01.2020 10:00:00 10,7 2,3 5,4 5,7 7,9 10 5 29 15 SSO 1019,8 6 0,0
15.01.2020 09:00:00 7,7 2,0 0,4 5,7 7,9 6 3 15 8 SO 1019,9 0 0,0
15.01.2020 08:00:00 5,6 1,3 -0,8 5,8 7,9 0 0 10 5 N 1019,8 0 0,0
15.01.2020 07:00:00 5,0 1,1 -0,5 5,8 7,9 4 2 15 8 N 1019,7 0 0,0
15.01.2020 06:00:00 7,0 1,3 1,3 5,8 7,9 3 2 11 6 SSO 1019,1 0 0,0
15.01.2020 05:00:00 8,6 1,5 3,7 5,8 7,9 6 3 20 11 SSO 1018,6 0 0,0
15.01.2020 04:00:00 8,6 1,7 4,6 5,8 7,9 5 3 21 12 S 1018,6 0 0,0
15.01.2020 03:00:00 8,8 1,7 6,0 5,8 7,9 6 3 30 16 SSO 1018,8 0 0,0
15.01.2020 02:00:00 9,8 1,9 7,6 5,8 7,9 11 6 31 17 SSO 1018,4 0 0,0
15.01.2020 01:00:00 9,5 2,1 5,1 5,8 7,9 8 4 18 10 SSO 1018,5 0 0,0
15.01.2020 00:00:00 8,6 2,2 4,7 5,8 7,9 4 2 16 9 S 1019,3 0 0,0
14.01.2020 23:00:00 8,7 1,8 3,7 5,8 7,9 5 3 19 11 SSO 1018,9 0 0,0
14.01.2020 22:00:00 9,5 1,9 7,0 5,8 7,9 7 4 29 15 SSO 1019,0 0 0,0
14.01.2020 21:00:00 9,9 2,0 7,3 5,8 7,9 11 6 26 14 SO 1018,8 0 0,0
14.01.2020 20:00:00 9,9 2,5 8,0 5,8 7,9 9 5 32 17 SSO 1018,7 0 0,0
14.01.2020 19:00:00 10,2 2,8 5,9 5,7 7,9 9 5 21 11 SSO 1018,2 0 0,0
14.01.2020 18:00:00 9,8 3,1 5,1 5,6 7,9 5 3 14 8 SSO 1018,3 0 0,0
14.01.2020 17:00:00 11,2 3,2 9,8 5,6 7,9 9 5 32 18 SSO 1018,0 9 0,0
14.01.2020 16:00:00 12,1 3,3 11,8 5,5 7,9 14 7 40 22 SSO 1017,6 28 0,0
14.01.2020 15:00:00 12,5 2,6 12,6 5,4 7,9 19 10 49 27 SO 1017,3 17 0,0
14.01.2020 14:00:00 12,7 2,5 13,1 5,4 7,9 22 12 46 25 SO 1017,1 16 0,0
14.01.2020 13:00:00 12,5 2,9 13,4 5,4 7,9 22 12 52 28 SO 1017,4 51 0,0
14.01.2020 12:00:00 11,7 2,7 12,7 5,4 7,8 22 12 48 26 SSO 1018,0 60 0,0
14.01.2020 11:00:00 10,5 2,3 8,5 5,4 7,9 11 6 39 21 SSO 1018,4 58 0,0
14.01.2020 10:00:00 8,9 1,8 5,7 5,4 7,9 12 7 30 16 SSO 1018,2 3 0,0
14.01.2020 09:00:00 7,3 0,7 5,2 5,5 7,9 10 5 29 16 SSO 1018,3 0 0,0
14.01.2020 08:00:00 6,8 0,2 5,0 5,5 7,9 8 5 33 18 SSO 1017,6 0 0,0
14.01.2020 07:00:00 6,7 0,1 1,6 5,6 7,9 10 5 23 12 SSO 1017,5 0 0,0
14.01.2020 06:00:00 5,7 0,5 2,7 5,7 7,9 5 3 26 14 S 1017,6 0 0,0
14.01.2020 05:00:00 6,4 0,7 3,0 5,7 7,9 8 5 22 12 SSO 1017,5 0 0,0
14.01.2020 04:00:00 6,6 0,9 4,1 5,7 7,9 10 5 30 16 SO 1017,1 0 0,0
14.01.2020 03:00:00 6,2 0,9 2,1 5,8 7,9 7 4 26 14 SSO 1017,6 0 0,0
14.01.2020 02:00:00 6,0 0,7 -1,3 5,8 7,9 9 5 22 12 SSO 1017,8 0 0,0
14.01.2020 01:00:00 3,8 0,5 -2,4 5,9 7,9 4 2 12 7 S 1018,6 0 0,0
14.01.2020 00:00:00 1,2 0,2 -3,1 6,0 7,9 0 0 6 4 N 1019,6 0 0,0
13.01.2020 23:00:00 1,3 0,4 -3,0 6,0 7,9 2 1 5 3 NNE 1019,3 0 0,0
13.01.2020 22:00:00 2,0 1,1 -2,4 6,1 7,9 2 1 9 5 SO 1019,2 0 0,0
13.01.2020 21:00:00 1,8 1,7 -2,7 6,1 7,9 2 1 5 3 NNE 1019,4 0 0,0
13.01.2020 20:00:00 2,6 2,6 -2,5 6,1 7,9 4 2 5 3 NNE 1020,0 0 0,0
13.01.2020 19:00:00 3,4 3,3 -1,0 6,0 7,9 2 1 4 2 NE 1020,7 0 0,0
13.01.2020 18:00:00 4,1 3,5 0,1 6,0 7,9 0 0 10 6 N 1020,8 0 0,0
13.01.2020 17:00:00 5,8 4,3 4,6 5,9 7,9 4 2 11 6 OSO 1020,4 20 0,0
13.01.2020 16:00:00 6,6 4,6 7,0 5,9 7,9 5 3 14 7 SO 1020,6 0 0,0
13.01.2020 15:00:00 6,5 5,0 7,6 5,9 7,9 5 3 14 8 SO 1021,1 0 0,0
13.01.2020 14:00:00 6,4 5,0 7,9 5,8 7,9 5 3 13 7 O 1022,1 0 0,0
13.01.2020 13:00:00 6,6 5,4 8,6 5,8 7,9 4 2 15 8 O 1022,9 0 0,0
13.01.2020 12:00:00 6,9 4,7 8,5 5,8 7,9 6 3 14 8 OSO 1023,6 3 0,0
13.01.2020 11:00:00 5,8 3,8 6,5 5,8 7,9 6 4 11 6 SSO 1024,2 12 0,0
13.01.2020 10:00:00 4,8 2,0 3,9 5,9 7,9 2 1 5 3 S 1024,7 0 0,0
13.01.2020 09:00:00 3,7 1,6 0,9 5,8 7,9 0 0 5 3 N 1025,2 0 0,0
13.01.2020 08:00:00 3,3 1,3 1,2 5,9 7,9 0 0 5 3 N 1025,8 0 0,0
13.01.2020 07:00:00 3,6 1,3 2,0 5,9 7,9 0 0 4 2 N 1026,2 0 0,0
13.01.2020 06:00:00 3,7 2,2 2,4 5,9 7,9 0 0 2 1 N 1026,3 0 0,0
13.01.2020 05:00:00 3,8 2,0 1,9 5,9 7,9 0 0 3 2 N 1026,9 0 0,0
13.01.2020 04:00:00 3,8 2,2 1,7 5,9 7,9 0 0 0 0 N 1027,3 0 0,0
13.01.2020 03:00:00 4,5 3,0 4,0 5,9 7,9 0 0 0 0 N 1027,8 0 0,0
13.01.2020 02:00:00 4,4 2,7 3,6 5,9 7,9 0 0 0 0 N 1028,0 0 0,0
13.01.2020 01:00:00 4,4 3,1 3,5 5,9 7,9 0 0 0 0 N 1028,5 0 0,0
13.01.2020 00:00:00 4,5 3,0 4,2 5,9 7,9 0 0 0 0 N 1029,2 0 0,0
12.01.2020 23:00:00 4,3 2,8 4,0 5,9 7,9 0 0 0 0 N 1029,8 0 0,0
12.01.2020 22:00:00 4,0 2,5 3,5 5,9 7,9 0 0 0 0 N 1029,9 0 0,0
12.01.2020 21:00:00 3,5 2,5 1,9 5,9 7,9 0 0 3 2 N 1030,4 0 0,0
12.01.2020 20:00:00 2,9 1,7 -0,2 5,9 7,9 0 0 0 0 N 1030,6 0 0,0
12.01.2020 19:00:00 2,9 1,7 -0,1 5,9 7,9 0 0 2 1 N 1030,7 0 0,0
12.01.2020 18:00:00 3,3 1,7 0,3 5,9 7,9 0 0 3 1 N 1030,6 0 0,0
12.01.2020 17:00:00 4,1 1,8 1,6 5,9 7,9 0 0 9 5 N 1030,2 0 0,0
12.01.2020 16:00:00 5,1 1,9 5,7 5,8 7,9 6 3 16 9 O 1030,1 11 0,0
12.01.2020 15:00:00 5,9 2,0 7,2 5,8 7,9 8 5 24 13 OSO 1030,0 55 0,0
12.01.2020 14:00:00 5,1 1,4 6,0 5,8 7,9 11 6 25 13 SO 1030,3 1 0,0
12.01.2020 13:00:00 4,7 1,4 5,8 5,8 7,9 12 7 26 14 SO 1031,0 2 0,0
12.01.2020 12:00:00 4,5 1,3 4,7 5,8 7,8 13 7 27 15 SO 1031,7 0 0,0
12.01.2020 11:00:00 3,8 1,7 3,4 5,8 7,9 9 5 19 10 SO 1032,3 0 0,0
12.01.2020 10:00:00 3,5 1,4 3,0 5,8 7,8 7 4 24 13 OSO 1031,8 0 0,0
12.01.2020 09:00:00 3,4 1,4 2,8 5,8 7,8 11 6 22 12 SO 1031,2 0 0,0

tt = Temperatura
td = dewpoint
tt 5cm = Temperatura 5cm
tt -20cm = Temperatura -20cm
tt -100cm = Temperatura -100cm
ff = velocità del vento
fx = gusts
dd = direzione del vento
ppp = reduced air pressure
sd = ore di luce
rr = precipitazioni

Stazioni seguenti

WeatherPro
AMSI
MeteoEarth